Time,TemperatureF,DewpointF,PressureIn,WindDirection,WindDirectionDegrees,WindSpeedMPH,WindSpeedGustMPH,Humidity,HourlyPrecipIn,Conditions,Clouds,dailyrainin,SoftwareType,DateUTC
2013-01-01 06:37:00,37.7,29.0,29.86,SW,217,1.0,-999.0,70,-99.99,,,0.02,weatherlink.com 1.10,2013-01-01 11:37:00,
2013-01-01 06:49:00,37.7,28.0,29.86,SW,224,2.0,-999.0,69,-99.99,,,0.02,weatherlink.com 1.10,2013-01-01 11:49:00,
2013-01-01 07:04:00,37.6,29.0,29.86,WSW,239,1.0,-999.0,70,-99.99,,,0.02,weatherlink.com 1.10,2013-01-01 12:04:00,
2013-01-01 07:20:00,37.6,29.0,29.88,NW,318,0.0,-999.0,70,-99.99,,,0.02,weatherlink.com 1.10,2013-01-01 12:20:00,
2013-01-01 07:35:00,37.6,29.0,29.87,West,275,4.0,-999.0,70,-99.99,,,0.02,weatherlink.com 1.10,2013-01-01 12:35:00,
2013-01-01 07:50:00,37.4,29.0,29.87,NW,317,0.0,-999.0,71,-99.99,,,0.02,weatherlink.com 1.10,2013-01-01 12:50:00,
2013-01-01 08:05:00,37.3,29.0,29.87,NW,311,0.0,-999.0,72,-99.99,,,0.02,weatherlink.com 1.10,2013-01-01 13:05:00,
2013-01-01 08:20:00,37.3,29.0,29.88,WNW,299,0.0,-999.0,72,-99.99,,,0.02,weatherlink.com 1.10,2013-01-01 13:20:00,
2013-01-01 08:35:00,37.3,28.0,29.88,NW,319,6.0,-999.0,70,-99.99,,,0.02,weatherlink.com 1.10,2013-01-01 13:35:00,
2013-01-01 08:50:00,37.4,28.0,29.89,NW,308,1.0,-999.0,69,-99.99,,,0.02,weatherlink.com 1.10,2013-01-01 13:50:00,
2013-01-01 09:05:00,37.3,28.0,29.89,WNW,289,0.0,-999.0,68,-99.99,,,0.02,weatherlink.com 1.10,2013-01-01 14:05:00,
2013-01-01 09:20:00,37.3,27.0,29.89,WNW,296,1.0,-999.0,67,-99.99,,,0.02,weatherlink.com 1.10,2013-01-01 14:20:00,
2013-01-01 09:35:00,37.2,27.0,29.90,WNW,292,1.0,-999.0,67,-99.99,,,0.02,weatherlink.com 1.10,2013-01-01 14:35:00,
2013-01-01 09:50:00,37.3,27.0,29.89,NNW,344,4.0,-999.0,67,-99.99,,,0.02,weatherlink.com 1.10,2013-01-01 14:50:00,
2013-01-01 10:05:00,37.2,26.0,29.90,NW,325,4.0,-999.0,65,-99.99,,,0.02,weatherlink.com 1.10,2013-01-01 15:05:00,
2013-01-01 10:20:00,37.2,27.0,29.90,North,9,2.0,-999.0,67,-99.99,,,0.02,weatherlink.com 1.10,2013-01-01 15:20:00,
2013-01-01 10:35:00,37.0,26.0,29.90,WSW,253,2.0,-999.0,65,-99.99,,,0.03,weatherlink.com 1.10,2013-01-01 15:35:00,
2013-01-01 10:51:00,37.0,26.0,29.89,NW,322,5.0,-999.0,65,-99.99,,,0.03,weatherlink.com 1.10,2013-01-01 15:51:00,
2013-01-01 11:06:00,37.0,26.0,29.89,NW,305,0.0,-999.0,65,-99.99,,,0.03,weatherlink.com 1.10,2013-01-01 16:06:00,
2013-01-01 11:21:00,36.8,26.0,29.89,North,355,2.0,-999.0,66,-99.99,,,0.03,weatherlink.com 1.10,2013-01-01 16:21:00,
2013-01-01 11:36:00,36.7,27.0,29.88,NNW,333,1.0,-999.0,67,-99.99,,,0.03,weatherlink.com 1.10,2013-01-01 16:36:00,
2013-01-01 11:51:00,36.7,26.0,29.87,NW,306,2.0,-999.0,66,-99.99,,,0.00,weatherlink.com 1.10,2013-01-01 16:51:00,
2013-01-01 12:06:00,36.6,25.0,29.86,NNW,344,4.0,-999.0,64,-99.99,,,0.00,weatherlink.com 1.10,2013-01-01 17:06:00,
2013-01-01 12:21:00,36.6,25.0,29.86,NNW,346,0.0,-999.0,62,-99.99,,,0.00,weatherlink.com 1.10,2013-01-01 17:21:00,
2013-01-01 12:36:00,36.6,24.0,29.86,North,355,5.0,-999.0,60,-99.99,,,0.00,weatherlink.com 1.10,2013-01-01 17:36:00,
2013-01-01 12:51:00,36.6,24.0,29.86,NW,320,2.0,-999.0,60,-99.99,,,0.00,weatherlink.com 1.10,2013-01-01 17:51:00,
2013-01-01 13:06:00,36.5,24.0,29.86,NNW,337,5.0,-999.0,60,-99.99,,,0.00,weatherlink.com 1.10,2013-01-01 18:06:00,
2013-01-01 13:21:00,36.5,23.0,29.86,WNW,296,6.0,-999.0,59,-99.99,,,0.00,weatherlink.com 1.10,2013-01-01 18:21:00,
2013-01-01 13:37:00,36.4,23.0,29.86,NW,306,2.0,-999.0,59,-99.99,,,0.00,weatherlink.com 1.10,2013-01-01 18:37:00,
2013-01-01 13:52:00,36.5,23.0,29.85,NNW,347,0.0,-999.0,58,-99.99,,,0.00,weatherlink.com 1.10,2013-01-01 18:52:00,
2013-01-01 14:07:00,36.5,22.0,29.84,West,271,2.0,-999.0,56,-99.99,,,0.00,weatherlink.com 1.10,2013-01-01 19:07:00,
2013-01-01 14:22:00,36.2,22.0,29.84,NNW,340,5.0,-999.0,56,-99.99,,,0.00,weatherlink.com 1.10,2013-01-01 19:22:00,
2013-01-01 14:37:00,36.0,21.0,29.85,NW,314,6.0,-999.0,54,-99.99,,,0.00,weatherlink.com 1.10,2013-01-01 19:37:00,
2013-01-01 14:52:00,35.6,20.0,29.86,NW,304,5.0,-999.0,53,-99.99,,,0.00,weatherlink.com 1.10,2013-01-01 19:52:00,
2013-01-01 15:07:00,35.3,20.0,29.86,NNW,335,6.0,-999.0,54,-99.99,,,0.00,weatherlink.com 1.10,2013-01-01 20:07:00,
2013-01-01 15:22:00,35.2,20.0,29.86,North,355,5.0,-999.0,54,-99.99,,,0.00,weatherlink.com 1.10,2013-01-01 20:22:00,
2013-01-01 15:37:00,34.9,20.0,29.86,NNW,346,2.0,-999.0,55,-99.99,,,0.00,weatherlink.com 1.10,2013-01-01 20:37:00,
2013-01-01 15:52:00,34.6,20.0,29.87,NNW,338,9.0,-999.0,56,-99.99,,,0.00,weatherlink.com 1.10,2013-01-01 20:52:00,
2013-01-01 16:07:00,34.4,19.0,29.89,NW,304,5.0,-999.0,54,-99.99,,,0.00,weatherlink.com 1.10,2013-01-01 21:07:00,
2013-01-01 16:23:00,33.9,20.0,29.89,NW,313,0.0,-999.0,56,-99.99,,,0.00,weatherlink.com 1.10,2013-01-01 21:23:00,
2013-01-01 16:38:00,33.5,19.0,29.91,NW,324,4.0,-999.0,55,-99.99,,,0.00,weatherlink.com 1.10,2013-01-01 21:38:00,
2013-01-01 16:53:00,33.0,18.0,29.90,NNW,335,7.0,-999.0,55,-99.99,,,0.00,weatherlink.com 1.10,2013-01-01 21:53:00,
2013-01-01 17:08:00,32.6,18.0,29.90,NW,313,5.0,-999.0,55,-99.99,,,0.00,weatherlink.com 1.10,2013-01-01 22:08:00,
2013-01-01 17:23:00,32.4,18.0,29.91,NNW,342,4.0,-999.0,56,-99.99,,,0.00,weatherlink.com 1.10,2013-01-01 22:23:00,
2013-01-01 17:38:00,32.1,18.0,29.93,NNW,330,2.0,-999.0,57,-99.99,,,0.00,weatherlink.com 1.10,2013-01-01 22:38:00,
2013-01-01 17:53:00,31.8,18.0,29.93,NNW,329,2.0,-999.0,58,-99.99,,,0.00,weatherlink.com 1.10,2013-01-01 22:53:00,
2013-01-01 18:08:00,31.6,18.0,29.93,NNW,327,4.0,-999.0,57,-99.99,,,0.00,weatherlink.com 1.10,2013-01-01 23:08:00,
2013-01-01 18:23:00,31.4,18.0,29.93,NW,306,2.0,-999.0,59,-99.99,,,0.00,weatherlink.com 1.10,2013-01-01 23:23:00,
2013-01-01 18:38:00,31.0,18.0,29.94,NNW,335,4.0,-999.0,60,-99.99,,,0.00,weatherlink.com 1.10,2013-01-01 23:38:00,
2013-01-01 18:54:00,30.7,18.0,29.95,NW,324,2.0,-999.0,59,-99.99,,,0.00,weatherlink.com 1.10,2013-01-01 23:54:00,
2013-01-01 19:09:00,30.5,17.0,29.95,WNW,303,4.0,-999.0,58,-99.99,,,0.00,weatherlink.com 1.10,2013-01-02 00:09:00,
2013-01-01 19:24:00,30.2,16.0,29.96,NNE,30,3.0,-999.0,56,-99.99,,,0.00,weatherlink.com 1.10,2013-01-02 00:24:00,
2013-01-01 19:39:00,29.7,16.0,29.96,North,360,1.0,-999.0,56,-99.99,,,0.00,weatherlink.com 1.10,2013-01-02 00:39:00,
2013-01-01 19:54:00,29.4,15.0,29.96,NNW,346,0.0,-999.0,56,-99.99,,,0.00,weatherlink.com 1.10,2013-01-02 00:54:00,
2013-01-01 20:09:00,29.0,15.0,29.95,NW,313,11.0,-999.0,57,-99.99,,,0.00,weatherlink.com 1.10,2013-01-02 01:09:00,
2013-01-01 20:24:00,28.6,15.0,29.96,NNW,329,2.0,-999.0,57,-99.99,,,0.00,weatherlink.com 1.10,2013-01-02 01:24:00,
2013-01-01 20:39:00,28.3,15.0,29.98,NW,326,7.0,-999.0,57,-99.99,,,0.00,weatherlink.com 1.10,2013-01-02 01:39:00,
2013-01-01 20:54:00,27.9,15.0,29.97,NNW,347,1.0,-999.0,59,-99.99,,,0.00,weatherlink.com 1.10,2013-01-02 01:54:00,
2013-01-01 21:09:00,27.7,15.0,29.97,NNW,338,4.0,-999.0,58,-99.99,,,0.00,weatherlink.com 1.10,2013-01-02 02:09:00,
2013-01-01 21:24:00,27.4,13.0,29.99,North,355,5.0,-999.0,56,-99.99,,,0.00,weatherlink.com 1.10,2013-01-02 02:24:00,
2013-01-01 21:40:00,26.9,13.0,29.99,NNW,331,6.0,-999.0,56,-99.99,,,0.00,weatherlink.com 1.10,2013-01-02 02:40:00,
2013-01-01 21:55:00,26.4,13.0,30.00,NNW,335,6.0,-999.0,57,-99.99,,,0.00,weatherlink.com 1.10,2013-01-02 02:55:00,
2013-01-01 22:10:00,25.9,12.0,30.00,NNW,348,2.0,-999.0,57,-99.99,,,0.00,weatherlink.com 1.10,2013-01-02 03:10:00,
2013-01-01 22:25:00,25.4,12.0,30.01,NW,305,5.0,-999.0,58,-99.99,,,0.00,weatherlink.com 1.10,2013-01-02 03:25:00,
2013-01-01 22:40:00,25.2,12.0,30.02,NNW,339,2.0,-999.0,58,-99.99,,,0.00,weatherlink.com 1.10,2013-01-02 03:40:00,